Location: Unspecified
(0.0000°N, 0.0000°E)
Time: 11:28:06
(UTC+00:00)

Vanguard 1 Rocket - Pass Details

Date: 25 November 2019
Orbit: 650 x 4226 km, 34.3° (Epoch: 07 December)

Event Time Altitude Azimuth Distance (km) Brightness Sun altitude
Rises 16:46:16 0° 228° (SW) 8,183 13.7 14.2°
Reaches altitude 10° 16:54:01 10° 216° (SW) 7,383 13.1 12.4°
Maximum altitude 17:14:07 26° 165° (SSE) 5,785 11.6 7.7°
Drops below altitude 10° 17:30:03 10° 115° (ESE) 5,970 11.2 4.0°
Sets 17:35:10 0° 102° (ESE) 6,465 11.2 2.8°
